• Join FlightAware (Why Join?)
  • Login
  • US Flag 
07:07PM EST


 

Airport Tracker/Info


-or-


 

Live Flight TrackerFlight Track Log ✈ UAL4336 ✈ 22-May-2013 ✈ KIAH - KBTR

Flight Track Log - Related Links

Times and Time Zones

All times are in EDT time to prevent confusion due to time zone crossing. See the UAL4336 flight status page for this flight to view local times or setup timezone preferences in your user account.

Time Position Orientation Groundspeed Altitude Reporting Facility
EDT Latitude Longitude Course Direction KTS MPH feet Rate Location/Type
10:06AM 29.9834 -94.7877 90° East  Level FlightAware Approximate
10:07AM 29.9833 -94.6785 90° East  Level FlightAware Approximate
10:08AM 29.9833 -94.5694 90° East  Level FlightAware Approximate
10:09AM 29.9834 -94.4602 90° East  Level FlightAware Approximate
10:10AM 29.9833 -94.3511 90° East  Level FlightAware Approximate
10:11AM 29.9947 -94.2435 77° East  Level FlightAware Approximate
10:12AM 30.0159 -94.1371 77° East  Level FlightAware Approximate
10:13AM 30.0248 -94.0284 85° East  Level FlightAware Approximate
10:14AM 30.0331 -93.9197 85° East  Level FlightAware Approximate
10:15AM 30.0505 -93.8127 82° East  Level FlightAware Approximate
10:16AM 30.0633 -93.7045 82° East  Level FlightAware Approximate
10:17AM 30.0761 -93.5963 82° East  Level FlightAware Approximate
10:18AM 30.0887 -93.4880 82° East  Level FlightAware Approximate
10:19AM 30.1013 -93.3797 82° East  Level FlightAware Approximate
10:20AM 30.1138 -93.2714 82° East  Level FlightAware Approximate
10:21AM 30.1262 -93.1631 82° East  Level FlightAware Approximate
10:22AM 30.1413 -93.0552 78° East  Level FlightAware Approximate
10:23AM 30.1602 -92.9481 78° East  Level FlightAware Approximate
10:24AM 30.1791 -92.8410 78° East  Level FlightAware Approximate
10:25AM 30.2022 -92.7350 75° East  Level FlightAware Approximate
10:26AM 30.2266 -92.6293 75° East  Level FlightAware Approximate
10:27AM 30.2463 -92.5223 79° East  Level FlightAware Approximate
10:28AM 30.2642 -92.4149 79° East  Level FlightAware Approximate
10:29AM 30.2843 -92.3079 77° East  Level FlightAware Approximate
10:30AM 30.3047 -92.2010 78° East  Level FlightAware Approximate
10:31AM 30.3250 -92.0941 78° East  Level FlightAware Approximate
10:32AM 30.3419 -91.9866 78° East  Level FlightAware Approximate
10:33AM 30.3613 -91.8794 78° East  Level FlightAware Approximate
10:34AM 30.3858 -91.7737 74° East  Level FlightAware Approximate
10:35AM 30.4121 -91.6684 74° East  Level FlightAware Approximate
10:36AM 30.4239 -91.5604 78° East  Level FlightAware Approximate
10:37AM 30.4434 -91.4531 78° East  Level FlightAware Approximate
10:38AM 30.4667 -91.3470 90° East  Level FlightAware Approximate
10:39AM 30.4938 -91.2458 60° Northeast  Level FlightAware Approximate
10:40AM 30.5156 -91.1397 79° East  Level FlightAware Approximate
10:41AM 30.5167 -91.1333 79° East  Level FlightAware Approximate
10:42AM 30.5329 -91.1499 79° East  Level Estimated
10:43AM 30.5329 -91.1499 79° East  Level Estimated
10:44AM 30.5329 -91.1499 79° East  Level Estimated
10:45AM 30.5329 -91.1499 79° East  Level Estimated
10:46AM 30.5329 -91.1499 79° East  Level Estimated